{"data":{"norad_id":52503,"epoch":"2026-05-25T00:22:51.358080Z","epoch_age_seconds":83711,"freshness":"FRESH","line1":"1 52503U 22049BE  26145.01587220 -.00000490  00000+0 -12684-4 0  9994","line2":"2 52503  53.2139  56.3620 0001847  84.9388 275.1815 15.08844489224055","mean_motion":15.08844489,"eccentricity":0.0001847,"inclination_deg":53.2139,"raan_deg":56.362,"arg_perigee_deg":84.9388,"mean_anomaly_deg":275.1815,"bstar":-1.2684e-5,"rev_number":22405,"period_min":95.437270739172,"perigee_km":538.45193794741,"apogee_km":541.00739789454,"semimajor_km":6917.866667921,"source":"CELESTRAK","updated_at":"2026-05-25T13:38:17.160690Z"}}